This demonstration page uses our WeatherBlox Daily Observations layout. Learn more.

Hourly Observations for November 12, 2019

Temp ( °F °C ) Dew Point ( °F °C ) Humidity (%) Winds ( mph kmh ) Pressure ( in mb ) Visibility ( mi km ) Precip ( " mm )
12:15 am 00:15 Clear 4 -15.5 1 -17.1 88 88 Calm N/A 10 16.0934 0 0
12:35 am 00:35 Clear 5 -15.1 2 -16.6 88 88 Calm N/A 10 16.0934 0 0
12:55 am 00:55 Clear 4 -15.4 2 -16.9 88 88 Calm N/A 10 16.0934 0 0
1:15 am 01:15 Clear 6 -14.2 3 -15.9 87 87 Calm 30.81 1043 10 16.0934 0 0
1:35 am 01:35 Clear 5 -14.9 2 -16.9 85 85 WSW 5 7 N/A 10 16.0934 0 0
1:55 am 01:55 Clear 5 -15.1 2 -16.9 86 86 SW 3 6 30.8 1043 10 16.0934 0 0
2:15 am 02:15 Clear 7 -13.8 3 -16 84 84 SW 5 7 30.82 1044 10 16.0934 0 0
2:35 am 02:35 Clear 7 -13.9 3 -16 84 84 SW 5 7 N/A 10 16.0934 0 0
2:55 am 02:55 Clear 7 -13.8 3 -16 84 84 SW 5 7 N/A 10 16.0934 0 0
3:15 am 03:15 Clear 6 -14.2 2 -16.4 84 84 SW 6 9 N/A 10 16.0934 0 0
3:35 am 03:35 Clear 6 -14.2 3 -16.3 84 84 SSW 5 7 N/A 10 16.0934 0 0
3:55 am 03:55 Clear 6 -14.2 2 -16.5 83 83 SSW 7 11 N/A 10 16.0934 0 0
4:15 am 04:15 Clear 7 -14.1 2 -16.4 83 83 SSW 6 9 N/A 10 16.0934 0 0
4:35 am 04:35 Clear 6 -14.3 2 -16.4 84 84 SSW 6 9 N/A 10 16.0934 0 0
4:55 am 04:55 Clear 6 -14.5 2 -16.7 84 84 SSW 6 9 N/A 10 16.0934 0 0
5:15 am 05:15 Clear 5 -14.8 2 -16.9 84 84 SSW 8 13 N/A 10 16.0934 0 0
5:35 am 05:35 Clear 6 -14.6 2 -16.6 85 85 SSW 8 13 N/A 10 16.0934 0 0
5:55 am 05:55 Clear 7 -14.1 3 -16.3 84 84 SSW 10 17 N/A 10 16.0934 0 0
6:15 am 06:15 Clear 6 -14.2 2 -16.5 83 83 S 8 13 N/A 10 16.0934 0 0
6:35 am 06:35 Clear 6 -14.4 2 -16.5 84 84 S 9 15 N/A 10 16.0934 0 0
6:55 am 06:55 Clear 6 -14.2 2 -16.5 83 83 S 8 13 N/A 10 16.0934 0 0
7:15 am 07:15 Clear 7 -13.8 3 -16 84 84 S 8 13 N/A 10 16.0934 0 0
7:35 am 07:35 Sunny 8 -13.6 3 -16 82 82 S 9 15 N/A 10 16.0934 0 0
7:55 am 07:55 Sunny 8 -13.1 4 -15.4 83 83 S 10 17 N/A 10 16.0934 0 0
8:15 am 08:15 Sunny 10 -12.1 6 -14.6 82 82 S 10 17 N/A 10 16.0934 0 0
8:35 am 08:35 Sunny 12 -10.9 8 -13.4 82 82 S 13 20 N/A 10 16.0934 0 0
8:55 am 08:55 Sunny 15 -9.4 10 -12 82 82 S 8 13 N/A 10 16.0934 0 0
9:15 am 09:15 Sunny 18 -8 12 -11 79 79 SSW 15 24 N/A 10 16.0934 0 0
9:35 am 09:35 Sunny 20 -6.8 14 -10.1 78 78 SSW 16 26 N/A 10 16.0934 0 0
9:55 am 09:55 Sunny 20 -6.4 14 -10 76 76 SSW 16 26 N/A 10 16.0934 0 0
10:15 am 10:15 Sunny 22 -5.5 15 -9.6 73 73 SSW 16 26 30.49 1033 10 16.0934 0 0
10:35 am 10:35 Sunny 25 -4.1 16 -8.7 71 71 S 21 33 30.47 1032 10 16.0934 0 0
10:55 am 10:55 Sunny 26 -3.5 16 -8.7 68 68 SSW 22 35 30.44 1031 10 16.0934 0 0
11:15 am 11:15 Sunny 28 -2.3 18 -7.7 67 67 S 18 30 30.42 1030 10 16.0934 0 0
11:35 am 11:35 Sunny 29 -1.7 18 -7.7 64 64 S 21 33 30.39 1029 10 16.0934 0 0
11:55 am 11:55 Sunny 30 -1 19 -7.2 63 63 SSW 23 37 30.37 1028 10 16.0934 0 0
12:15 pm 12:15 Sunny 32 -0.2 20 -6.9 61 61 S 28 44 30.33 1027 10 16.0934 0 0
12:35 pm 12:35 Sunny 33 0.3 21 -6.3 62 62 S 21 33 30.3 1026 10 16.0934 0 0
12:55 pm 12:55 Sunny 34 1.2 21 -6 59 59 S 25 41 30.27 1025 10 16.0934 0 0
1:15 pm 13:15 Sunny 35 1.9 21 -6 56 56 SSW 26 43 30.24 1024 10 16.0934 0 0
1:35 pm 13:35 Sunny 37 2.7 21 -6.3 52 52 S 24 39 30.22 1023 10 16.0934 0 0
1:55 pm 13:55 Sunny 38 3.5 20 -6.6 48 48 SSW 24 39 30.2 1023 10 16.0934 0 0
2:15 pm 14:15 Sunny 39 4 20 -6.9 45 45 SSW 23 37 30.19 1022 10 16.0934 0 0
2:35 pm 14:35 Sunny 40 4.3 19 -7.3 43 43 S 20 31 30.17 1022 10 16.0934 0 0
2:55 pm 14:55 Sunny 41 5 19 -7.2 41 41 S 21 33 30.16 1021 10 16.0934 0 0
3:15 pm 15:15 Sunny 41 4.9 19 -7.5 41 41 S 18 30 30.15 1021 10 16.0934 0 0
3:35 pm 15:35 Sunny 42 5.5 19 -7.5 39 39 S 18 30 30.13 1020 10 16.0934 0 0
3:55 pm 15:55 Sunny 43 6.1 19 -7.5 37 37 S 21 33 30.11 1020 10 16.0934 0 0
4:15 pm 16:15 Sunny 43 6 18 -7.8 37 37 S 21 33 30.1 1019 10 16.0934 0 0
4:35 pm 16:35 Sunny 42 5.7 17 -8.1 37 37 S 22 35 30.09 1019 10 16.0934 0 0
4:55 pm 16:55 Sunny 41 4.9 17 -8.5 38 38 S 16 26 30.1 1019 10 16.0934 0 0
5:15 pm 17:15 Sunny 39 3.7 17 -8.5 41 41 S 16 26 30.1 1019 10 16.0934 0 0
5:35 pm 17:35 Clear 36 2.3 17 -8.2 46 46 S 14 22 30.1 1019 10 16.0934 0 0
5:55 pm 17:55 Clear 36 2.1 17 -8.5 46 46 S 15 24 30.11 1019 10 16.0934 0 0
6:15 pm 18:15 Clear 35 1.8 17 -8.5 47 47 S 15 24 30.1 1019 10 16.0934 0 0
6:35 pm 18:35 Clear 34 1.3 17 -8.5 48 48 S 17 28 30.1 1019 10 16.0934 0 0
6:55 pm 18:55 Clear 34 1.1 17 -8.5 49 49 S 18 30 30.09 1019 10 16.0934 0 0
7:15 pm 19:15 Clear 33 0.7 17 -8.5 51 51 S 20 31 30.09 1019 10 16.0934 0 0
7:35 pm 19:35 Clear 33 0.6 17 -8.6 51 51 S 16 26 30.08 1019 10 16.0934 0 0
7:55 pm 19:55 Clear 33 0.6 16 -9 49 49 S 18 30 30.08 1019 10 16.0934 0 0
8:15 pm 20:15 Clear 32 0.2 16 -9.1 50 50 S 17 28 30.07 1018 10 16.0934 0 0
8:35 pm 20:35 Clear 32 0 15 -9.2 50 50 S 16 26 30.07 1018 10 16.0934 0 0
8:55 pm 20:55 Clear 32 -0.2 15 -9.2 51 51 S 15 24 30.07 1018 10 16.0934 0 0
9:15 pm 21:15 Clear 31 -0.7 15 -9.3 53 53 S 16 26 30.06 1018 10 16.0934 0 0
9:35 pm 21:35 Clear 30 -1 15 -9.3 54 54 S 14 22 30.06 1018 10 16.0934 0 0
9:55 pm 21:55 Clear 30 -1.3 15 -9.5 54 54 S 15 24 30.05 1018 10 16.0934 0 0
10:15 pm 22:15 Clear 29 -1.5 15 -9.4 55 55 S 13 20 30.05 1018 10 16.0934 0 0
10:35 pm 22:35 Clear 29 -1.5 15 -9.4 55 55 S 12 19 30.04 1017 10 16.0934 0 0
10:55 pm 22:55 Clear 29 -1.5 15 -9.3 56 56 S 12 19 30.03 1017 10 16.0934 0 0
11:15 pm 23:15 Clear 30 -1.3 15 -9.3 55 55 S 12 19 30.02 1016 10 16.0934 0 0
11:35 pm 23:35 Clear 30 -1.2 15 -9.3 55 55 S 10 17 30.01 1016 10 16.0934 0 0
11:55 pm 23:55 Clear 31 -0.7 15 -9.3 53 53 SSW 12 19 29.99 1016 10 16.0934 0 0

Powered by AerisWeather